When you browse on this site, cookies collect data to enhance your experience and personalize the content and advertising you see.
Visit our Privacy Policy to learn more. By continuing to use the site, you agree to this use of cookies and data.
  • In Hungary
  • List of Countries
  • For 7 days
  • Water Temperature
  • Satellite Maps
  • Weather Map
  • News
  • Weather Widgets
  • user-avatar
    Login

    Hourly Weather Willebroek

    Today, 21 March, Thursday

    Time Temperature Precipitation Wind Pressure Humidity
    00:00 +9°C° 0 mm 1 mps 775 mmHg 89%
    01:00 +9°C° 0 mm 1 mps 775 mmHg 89%
    02:00 +8°C° 0 mm 1 mps 775 mmHg 90%
    03:00 +8°C° 0 mm 1 mps 775 mmHg 91%
    04:00 +8°C° 0 mm 1 mps 775 mmHg 91%
    05:00 +7°C° 0 mm 1 mps 775 mmHg 91%
    06:00 +7°C° 0 mm 1 mps 775 mmHg 92%
    07:00 +9°C° 0 mm 1 mps 775 mmHg 85%
    08:00 +10°C° 0 mm 1 mps 775 mmHg 79%
    09:00 +12°C° 0 mm 1 mps 775 mmHg 73%
    10:00 +13°C° 0 mm 1 mps 775 mmHg 68%
    11:00 +15°C° 0 mm 1 mps 775 mmHg 64%
    12:00 +16°C° 0 mm 1 mps 775 mmHg 59%
    13:00 +16°C° 0 mm 1 mps 774 mmHg 58%
    14:00 +18°C° 0 mm 1 mps 774 mmHg 57%
    15:00 +16°C° 0 mm 0 mps 774 mmHg 56%
    16:00 +16°C° 0 mm 1 mps 774 mmHg 61%
    17:00 +15°C° 0 mm 1 mps 773 mmHg 66%
    18:00 +13°C° 0 mm 1 mps 773 mmHg 71%
    19:00 +13°C° 0 mm 1 mps 774 mmHg 75%
    20:00 +12°C° 0 mm 1 mps 774 mmHg 80%
    21:00 +11°C° 0 mm 1 mps 774 mmHg 84%
    22:00 +11°C° 0 mm 1 mps 774 mmHg 85%
    23:00 +10°C° 0 mm 1 mps 774 mmHg 87%

    Tomorrow, 22 March, Friday

    Time Temperature Precipitation Wind Pressure Humidity
    00:00 +10°C° 0 mm 1 mps 774 mmHg 88%
    01:00 +10°C° 0 mm 1 mps 773 mmHg 87%
    02:00 +9°C° 0 mm 1 mps 773 mmHg 85%
    03:00 +9°C° 0 mm 1 mps 773 mmHg 84%
    04:00 +9°C° 0 mm 1 mps 773 mmHg 80%
    05:00 +8°C° 0 mm 1 mps 773 mmHg 77%
    06:00 +7°C° 0 mm 2 mps 773 mmHg 73%
    07:00 +9°C° 0 mm 2 mps 773 mmHg 66%
    08:00 +12°C° 0 mm 2 mps 772 mmHg 59%
    09:00 +13°C° 0 mm 2 mps 772 mmHg 51%
    10:00 +15°C° 0 mm 2 mps 772 mmHg 47%
    11:00 +16°C° 0 mm 1 mps 772 mmHg 44%
    12:00 +19°C° 0 mm 1 mps 771 mmHg 40%
    13:00 +19°C° 0 mm 1 mps 771 mmHg 39%
    14:00 +20°C° 0 mm 1 mps 770 mmHg 39%
    15:00 +20°C° 0 mm 1 mps 770 mmHg 39%
    16:00 +19°C° 0 mm 1 mps 770 mmHg 44%
    17:00 +16°C° 0 mm 1 mps 770 mmHg 49%
    18:00 +15°C° 0 mm 1 mps 770 mmHg 54%
    19:00 +14°C° 0 mm 1 mps 770 mmHg 57%
    20:00 +13°C° 0 mm 1 mps 770 mmHg 61%
    21:00 +12°C° 0 mm 2 mps 771 mmHg 64%
    22:00 +10°C° 0 mm 2 mps 771 mmHg 69%
    23:00 +11°C° 0 mm 1 mps 771 mmHg 73%

    Day after tomorrow, 23 March, Saturday

    Time Temperature Precipitation Wind Pressure Humidity
    00:00 +10°C° 0 mm 1 mps 770 mmHg 77%
    01:00 +10°C° 0 mm 1 mps 770 mmHg 81%
    02:00 +9°C° 0 mm 1 mps 771 mmHg 84%
    03:00 +9°C° 0 mm 1 mps 771 mmHg 88%
    04:00 +9°C° 0 mm 1 mps 771 mmHg 90%
    05:00 +9°C° 0 mm 1 mps 771 mmHg 92%
    06:00 +9°C° 0 mm 1 mps 771 mmHg 94%
    07:00 +10°C° 0 mm 1 mps 771 mmHg 89%
    08:00 +12°C° 0 mm 2 mps 772 mmHg 83%
    09:00 +13°C° 0 mm 2 mps 772 mmHg 78%
    10:00 +14°C° 0 mm 2 mps 772 mmHg 75%
    11:00 +14°C° 0 mm 3 mps 772 mmHg 72%
    12:00 +14°C° 0 mm 4 mps 772 mmHg 69%
    13:00 +14°C° 0 mm 4 mps 772 mmHg 69%
    14:00 +13°C° 0 mm 4 mps 772 mmHg 68%
    15:00 +12°C° 0 mm 5 mps 772 mmHg 68%
    16:00 +11°C° 0 mm 4 mps 773 mmHg 67%
    17:00 +11°C° 0 mm 4 mps 773 mmHg 67%
    18:00 +10°C° 0 mm 4 mps 773 mmHg 66%
    19:00 +8°C° 0 mm 4 mps 773 mmHg 67%
    20:00 +8°C° 0 mm 3 mps 774 mmHg 68%
    21:00 +7°C° 0 mm 3 mps 774 mmHg 69%
    22:00 +7°C° 0 mm 3 mps 774 mmHg 70%
    23:00 +5°C° 0 mm 3 mps 774 mmHg 71%

    24 March, Sunday

    Time Temperature Precipitation Wind Pressure Humidity
    00:00 +5°C° 0 mm 3 mps 773 mmHg 72%
    01:00 +4°C° 0 mm 3 mps 773 mmHg 73%
    02:00 +4°C° 0 mm 3 mps 773 mmHg 74%
    03:00 +3°C° 0 mm 3 mps 773 mmHg 75%
    04:00 +3°C° 0 mm 3 mps 773 mmHg 76%
    05:00 +3°C° 0 mm 3 mps 773 mmHg 78%
    06:00 +2°C° 0 mm 3 mps 773 mmHg 80%
    07:00 +4°C° 0 mm 3 mps 773 mmHg 74%
    08:00 +5°C° 0 mm 3 mps 773 mmHg 67%
    09:00 +7°C° 0 mm 3 mps 773 mmHg 61%
    10:00 +9°C° 0 mm 3 mps 773 mmHg 55%
    11:00 +10°C° 0 mm 3 mps 773 mmHg 49%
    12:00 +11°C° 0 mm 4 mps 773 mmHg 44%
    13:00 +11°C° 0 mm 4 mps 773 mmHg 44%
    14:00 +11°C° 0 mm 4 mps 773 mmHg 44%
    15:00 +11°C° 0 mm 4 mps 773 mmHg 45%
    16:00 +10°C° 0 mm 4 mps 773 mmHg 49%
    17:00 +8°C° 0 mm 4 mps 774 mmHg 53%
    18:00 +8°C° 0 mm 3 mps 774 mmHg 57%
    19:00 +7°C° 0 mm 3 mps 774 mmHg 60%
    20:00 +5°C° 0 mm 3 mps 775 mmHg 63%
    21:00 +5°C° 0 mm 2 mps 775 mmHg 66%
    22:00 +5°C° 0 mm 2 mps 775 mmHg 69%
    23:00 +5°C° 0 mm 2 mps 775 mmHg 71%

    25 March, Monday

    Time Temperature Precipitation Wind Pressure Humidity
    00:00 +5°C° 0 mm 1 mps 775 mmHg 74%
    01:00 +5°C° 0 mm 1 mps 775 mmHg 75%
    02:00 +5°C° 0 mm 1 mps 775 mmHg 76%
    03:00 +5°C° 0 mm 1 mps 775 mmHg 78%
    04:00 +4°C° 0 mm 2 mps 775 mmHg 80%
    05:00 +4°C° 0 mm 2 mps 775 mmHg 83%
    06:00 +4°C° 0 mm 2 mps 775 mmHg 85%
    07:00 +6°C° 0 mm 2 mps 775 mmHg 80%
    08:00 +8°C° 0 mm 3 mps 775 mmHg 74%
    09:00 +10°C° 0 mm 3 mps 775 mmHg 69%
    10:00 +10°C° 0.1 mm 4 mps 775 mmHg 65%
    11:00 +11°C° 0.1 mm 4 mps 775 mmHg 60%
    12:00 +12°C° 0.1 mm 5 mps 775 mmHg 56%
    13:00 +12°C° 0 mm 5 mps 775 mmHg 56%
    14:00 +12°C° 0 mm 5 mps 775 mmHg 55%
    15:00 +12°C° 0 mm 5 mps 774 mmHg 55%
    16:00 +9°C° 0 mm 5 mps 774 mmHg 61%
    17:00 +8°C° 0 mm 4 mps 775 mmHg 66%
    18:00 +7°C° 0 mm 4 mps 775 mmHg 72%
    19:00 +7°C° 0 mm 3 mps 775 mmHg 76%
    20:00 +7°C° 0 mm 3 mps 776 mmHg 81%
    21:00 +6°C° 0 mm 2 mps 776 mmHg 85%
    22:00 +6°C° 0 mm 2 mps 776 mmHg 87%
    23:00 +5°C° 0 mm 2 mps 776 mmHg 88%

    26 March, Tuesday

    Time Temperature Precipitation Wind Pressure Humidity
    00:00 +5°C° 0 mm 2 mps 776 mmHg 90%
    01:00 +5°C° 0 mm 2 mps 776 mmHg 90%
    02:00 +5°C° 0 mm 2 mps 776 mmHg 90%
    03:00 +5°C° 0 mm 2 mps 776 mmHg 91%
    04:00 +5°C° 0 mm 2 mps 776 mmHg 91%
    05:00 +4°C° 0 mm 2 mps 776 mmHg 91%
    06:00 +4°C° 0 mm 2 mps 776 mmHg 90%
    07:00 +6°C° 0 mm 2 mps 776 mmHg 82%
    08:00 +8°C° 0 mm 3 mps 776 mmHg 73%
    09:00 +10°C° 0 mm 3 mps 776 mmHg 65%
    10:00 +11°C° 0 mm 3 mps 776 mmHg 62%
    11:00 +11°C° 0 mm 4 mps 776 mmHg 58%
    12:00 +12°C° 0 mm 4 mps 776 mmHg 55%
    13:00 +12°C° 0 mm 4 mps 775 mmHg 54%
    14:00 +12°C° 0 mm 4 mps 775 mmHg 53%
    15:00 +13°C° 0 mm 4 mps 775 mmHg 53%
    16:00 +11°C° 0 mm 3 mps 775 mmHg 57%
    17:00 +10°C° 0 mm 3 mps 775 mmHg 61%
    18:00 +9°C° 0 mm 3 mps 775 mmHg 65%
    19:00 +8°C° 0 mm 2 mps 776 mmHg 69%
    20:00 +7°C° 0 mm 2 mps 776 mmHg 73%
    21:00 +7°C° 0 mm 2 mps 776 mmHg 77%
    22:00 +6°C° 0 mm 2 mps 776 mmHg 80%
    23:00 +7°C° 0 mm 1 mps 776 mmHg 82%
    Show more